Dewpoint
60 56 43 37 31 29 22 21 30 28 30 32 31 32 33 34 37 35 57 62 63 66 71 70 71 70 68 66 65 64 63 63 60 60 61 66 62 60 60 60 59 58 57 58 60 63 63 62 62
58 50 40 35 28 25 24 26 27 30 31 31 33 37 35 38 48 51 57 61 65 68 70 68 71 70 68 67 65 64 63 62 60 60 62 64 59 60 59 58 57 58 58 57 58 59 60 60 60
51 42 36 31 29 25 24 25 29 31 32 29 33 39 38 42 50 51 57 63 66 68 70 68 71 71 69 67 66 64 62 60 59 59 64 61 59 59 59 57 58 60 58 58 58 57 56 57 57
48 43 37 31 27 30 27 24 30 31 30 31 34 37 44 47 50 53 61 66 66 69 70 70 71 71 69 68 66 65 62 61 58 58 59 60 59 59 60 60 59 61 59 58 58 58 58 58 59
45 41 33 31 30 30 31 32 32 31 30 27 31 33 41 49 54 58 64 67 66 69 70 69 72 71 70 68 67 65 63 61 59 59 60 59 59 61 61 61 60 61 60 59 58 58 58 58 59
43 39 33 30 31 32 33 33 33 31 30 28 32 37 41 49 54 63 66 67 68 69 70 70 71 71 70 69 68 66 64 63 61 60 61 62 63 64 63 63 62 62 61 60 60 61 61 61 60
42 39 34 33 31 31 31 33 31 31 32 29 35 35 40 45 53 63 65 66 67 68 69 69 70 70 71 69 68 67 65 65 62 61 61 62 63 61 65 64 63 63 62 62 62 62 62 60 61
45 40 37 35 32 32 33 34 35 28 29 31 36 34 35 43 54 62 63 63 65 67 68 69 70 70 69 69 68 67 67 65 65 63 62 63 62 60 64 64 64 64 63 63 63 62 62 62 63
46 42 38 36 35 33 36 35 37 37 34 37 35 36 41 49 54 59 61 62 63 65 66 69 69 70 69 69 68 68 67 66 66 63 63 63 63 61 59 63 65 65 65 64 63 63 63 61 60
47 43 40 41 38 36 37 37 38 37 37 37 37 38 44 51 53 54 56 58 62 63 65 67 69 69 69 68 68 67 67 65 64 63 62 61 60 58 57 57 60 62 62 62 60 60 59 58 57
47 42 43 43 43 44 44 42 40 39 38 38 36 37 39 48 52 52 54 55 58 62 64 66 67 69 69 68 67 67 66 66 64 63 61 61 60 59 58 57 57 58 59 58 57 58 52 45 44
41 44 45 45 45 45 45 45 45 43 41 39 39 42 41 41 41 52 52 53 56 59 62 65 66 67 68 68 67 67 66 65 64 62 61 60 60 60 57 57 57 57 57 57 54 45 40 38 36
43 42 43 43 41 41 44 43 44 44 46 45 46 45 44 42 41 40 47 52 53 54 58 63 66 66 67 67 67 66 66 64 64 62 61 60 60 58 56 58 57 54 47 44 41 39 35 29 26
40 40 40 40 39 40 40 39 42 41 45 45 45 45 43 42 42 41 39 39 42 44 47 56 62 65 66 66 66 66 65 64 64 63 62 61 60 57 56 46 43 41 40 36 35 31 27 23 22
41 38 38 39 39 38 39 37 38 40 41 40 42 44 44 45 44 42 41 40 40 40 41 45 56 63 65 65 65 65 65 64 63 63 62 61 58 54 47 42 38 37 34 28 27 28 25 22 19
37 37 33 35 37 38 37 29 35 37 39 40 40 40 41 42 42 43 42 41 40 40 40 42 51 60 63 64 64 64 64 64 62 61 60 58 52 47 43 38 33 30 29 28 24 26 26 21 20
35 30 32 32 35 37 38 34 37 39 38 38 39 42 43 43 43 43 42 41 40 40 41 42 53 59 61 63 63 63 62 60 56 54 50 46 44 41 37 32 28 25 24 24 22 23 26 19 19
28 31 30 29 31 34 33 33 34 35 35 35 36 38 39 40 41 42 42 41 40 41 43 46 52 59 61 62 57 52 51 49 46 43 40 39 38 34 31 27 24 23 22 20 21 18 23 21 21
32 32 30 32 33 33 31 31 32 33 33 33 33 34 35 39 40 41 41 41 40 42 46 49 56 59 57 54 52 50 47 44 38 35 32 31 30 28 25 23 22 22 20 18 17 20 18 19 21
33 32 28 29 30 31 30 29 29 30 30 30 30 32 34 34 39 41 40 40 41 43 47 52 57 55 55 54 51 48 45 39 34 30 27 27 27 25 23 22 21 21 20 18 17 18 17 18 22
31 30 30 29 29 29 28 24 20 21 25 27 29 31 32 33 36 39 40 40 42 46 48 51 54 52 51 45 42 38 36 33 29 25 24 24 23 22 22 22 20 21 21 18 19 19 17 15 20
28 30 30 29 28 23 29 17 17 19 20 21 24 27 29 31 33 36 39 40 42 46 51 51 51 49 46 43 42 42 42 37 30 24 22 21 21 21 20 20 19 19 19 18 17 17 18 17 14
28 30 29 30 30 28 26 24 20 23 22 22 23 23 27 30 33 37 39 40 43 49 51 51 49 46 43 43 43 44 43 32 23 20 18 18 19 19 18 18 18 17 17 16 16 16 16 16 13
32 31 31 32 30 23 23 25 20 20 19 19 21 22 25 31 34 38 40 41 45 50 51 49 47 44 42 42 40 38 34 23 19 18 16 16 17 16 16 16 17 16 16 16 17 16 16 15 14
31 31 22 21 21 18 20 24 21 21 22 23 21 21 23 28 35 38 40 43 47 50 50 47 45 43 40 39 37 32 26 22 19 17 16 15 13 13 13 14 14 15 17 17 17 16 16 15 14
30 30 22 16 15 15 20 20 19 23 23 22 22 23 26 29 34 38 41 45 47 50 48 46 44 41 39 37 32 27 23 22 19 17 16 14 13 12 12 13 14 14 15 15 15 16 16 15 15
31 28 29 25 24 23 21 20 21 22 23 23 23 25 27 27 29 34 42 46 48 49 47 45 42 39 37 32 27 25 23 22 19 16 15 13 12 11 12 13 14 14 15 15 15 14 14 15 15
33 32 26 27 17 15 18 20 17 17 15 14 19 31 32 30 30 36 43 46 48 48 45 43 39 36 32 28 25 22 20 17 15 14 12 12 11 11 13 14 14 14 14 14 14 14 15 14 15
31 29 30 28 26 17 13 12 15 13 13 15 30 32 35 35 33 38 45 46 45 42 41 37 33 30 26 23 19 17 15 13 12 10 10 10 11 13 13 13 13 14 14 14 13 12 14 15 16
28 28 28 24 20 25 22 18 18 19 23 29 24 34 39 40 40 43 42 39 39 37 35 33 29 25 21 18 16 13 12 10 9 9 10 11 12 13 13 13 13 13 14 13 11 12 15 17 18
Wind_Speed
10 10 3 4 1 2 2 4 2 3 1 2 5 4 3 2 4 3 2 12 3 17 17 20 19 19 18 16 14 11 9 8 7 6 7 10 9 7 6 6 5 5 6 6 7 9 10 9 9
8 3 5 4 1 4 4 4 5 2 6 9 2 2 2 2 1 1 6 11 7 17 17 17 19 20 19 16 14 12 9 8 7 6 4 10 7 6 5 5 5 5 4 4 4 5 5 5 5
2 5 1 3 4 11 5 6 5 6 10 3 2 2 2 2 1 2 2 13 12 16 13 12 20 19 19 17 14 12 9 8 8 7 6 10 8 6 6 6 5 5 4 3 3 3 4 4 5
2 3 4 4 15 6 5 1 2 8 4 1 2 4 2 2 0 1 7 12 15 15 12 13 17 20 18 18 15 12 11 9 9 8 6 7 7 8 7 6 6 5 4 4 4 3 3 2 3
4 3 3 5 12 5 7 6 4 7 6 6 4 2 2 1 2 4 13 13 17 14 12 12 13 17 18 18 15 13 11 10 10 9 8 9 9 8 8 8 7 5 3 3 1 2 3 3 3
4 3 4 17 13 4 6 7 4 4 6 7 3 3 3 1 4 8 11 13 14 16 15 12 13 14 18 18 16 14 12 11 11 10 8 5 5 3 7 10 9 5 2 0 1 4 5 5 5
7 6 8 9 12 11 9 6 9 9 4 5 1 3 2 4 5 11 10 9 10 12 14 14 14 13 15 17 16 15 13 11 11 10 9 6 0 5 8 14 10 6 3 1 3 4 5 5 5
5 6 7 9 15 13 4 5 2 4 3 4 3 3 2 1 7 11 9 8 6 9 11 13 13 13 13 15 16 15 13 11 10 8 7 5 3 4 9 8 7 4 2 1 5 5 5 5 6
3 5 13 13 11 9 1 4 1 4 3 5 3 2 4 2 7 9 7 7 7 8 11 12 13 13 13 14 13 14 12 11 10 9 7 6 3 1 2 3 2 2 1 3 5 6 6 6 6
4 7 10 7 9 6 2 2 5 4 7 4 7 3 7 2 6 12 13 13 12 13 12 13 13 14 13 12 12 11 10 9 8 8 7 5 3 1 1 1 1 2 3 2 4 5 5 5 5
4 10 5 3 2 2 3 7 3 6 11 11 10 6 7 1 6 9 9 11 14 11 12 14 14 13 14 14 12 10 9 8 7 8 7 5 4 3 1 0 1 1 1 1 2 3 7 7 6
4 7 8 5 6 6 8 3 8 8 15 5 6 8 9 13 9 10 12 11 11 13 15 15 15 15 15 13 14 13 11 9 8 8 8 6 4 3 2 2 2 2 2 3 5 5 7 8 7
6 5 5 5 7 8 10 18 18 21 16 13 17 15 20 16 16 13 12 11 10 13 14 15 17 18 17 16 13 13 13 11 10 9 9 7 6 5 5 4 5 5 5 6 6 6 6 8 7
2 4 8 8 11 10 16 23 12 14 16 22 19 21 19 16 17 14 13 16 14 16 16 16 19 20 18 19 18 15 13 12 10 9 9 9 8 8 9 9 7 7 6 6 7 6 6 7 6
3 8 11 13 14 12 7 22 22 22 20 24 22 19 19 20 20 21 19 18 16 15 11 15 19 20 22 21 18 15 14 13 12 10 11 11 11 13 14 11 8 6 6 7 6 6 6 7 6
4 4 6 3 3 8 13 23 11 12 14 25 27 26 26 29 26 22 21 18 17 15 15 10 13 19 22 22 18 15 14 13 11 11 10 12 12 13 13 14 9 6 6 5 8 6 5 6 7
7 7 9 7 1 5 14 8 3 3 6 11 12 16 19 20 23 21 20 16 19 17 15 15 14 19 21 20 17 15 14 12 11 13 12 13 12 13 12 13 11 8 7 7 7 8 6 9 10
6 8 8 11 2 8 20 28 22 20 20 24 17 16 18 18 21 19 19 13 13 14 12 12 12 16 18 17 15 13 12 11 10 12 13 14 13 13 13 12 13 9 9 8 8 8 8 7 10
3 8 14 9 8 17 23 31 26 26 25 26 25 25 23 22 20 21 19 16 13 11 11 11 14 17 20 20 20 14 15 14 12 12 15 15 14 11 12 13 13 10 11 10 6 4 7 10 12
14 18 22 19 19 18 24 40 25 26 31 30 30 28 27 26 21 20 19 15 15 15 14 12 14 18 18 18 12 10 15 10 12 11 14 14 16 11 11 14 13 11 11 10 10 6 3 5 10
14 18 16 20 15 19 24 39 25 22 25 28 30 30 29 29 25 24 21 19 17 17 18 16 16 18 16 18 21 19 18 14 10 12 12 12 14 13 14 14 14 11 10 10 8 8 6 5 6
19 12 17 16 10 10 3 23 17 12 19 18 20 22 27 28 27 28 22 20 20 23 16 16 16 18 18 20 22 30 21 22 10 13 12 13 15 14 13 14 13 12 10 10 8 6 6 3 5
10 6 10 11 12 14 16 11 15 2 9 14 17 22 23 25 26 28 25 24 23 18 19 17 18 17 19 19 23 22 21 16 17 17 18 15 13 13 13 14 13 12 9 9 8 7 6 5 3
4 6 9 7 10 18 18 17 35 12 12 10 17 18 18 20 22 22 16 17 15 16 17 17 20 17 18 20 20 22 27 27 24 18 19 15 13 12 12 13 12 10 9 8 7 5 5 4 4
15 5 4 7 12 16 7 17 33 10 23 24 20 22 21 17 16 17 18 18 18 21 21 19 20 19 18 19 20 21 22 25 27 22 20 19 15 12 11 12 10 9 8 7 5 5 4 3 2
18 15 10 8 10 11 5 14 18 20 24 23 17 16 18 15 13 14 19 19 21 23 23 22 22 22 19 19 20 20 21 19 19 18 18 16 15 13 12 11 10 9 7 6 4 4 3 2 1
6 18 14 16 21 20 16 21 17 23 19 21 16 14 19 22 18 20 16 18 21 22 25 25 25 22 21 19 20 20 19 21 20 19 16 16 16 14 12 11 10 8 6 5 4 3 2 2 2
12 2 6 11 9 17 10 13 21 12 15 18 6 13 17 17 17 17 18 20 19 19 18 20 22 25 22 20 20 21 22 20 19 19 19 17 15 15 13 10 9 7 5 4 3 3 3 2 4
13 15 10 6 11 12 19 19 12 19 17 11 7 13 16 19 16 16 15 15 16 18 20 20 22 25 22 21 22 24 22 21 18 18 16 16 15 13 11 9 8 6 4 2 3 3 2 5 6
25 19 25 17 17 10 12 41 8 9 8 5 17 14 13 11 6 10 14 17 21 21 21 21 21 22 21 23 24 23 22 21 20 18 16 15 15 11 10 8 7 5 3 3 3 3 4 6 7
Wind_Direction
327 336 26 39 282 55 248 243 246 321 308 231 290 207 210 220 173 212 342 188 155 157 164 167 157 152 151 149 144 141 138 131 130 148 171 160 128 87 83 81 71 55 43 33 29 58 74 66 65
332 354 40 81 208 226 245 229 196 262 293 298 239 215 215 239 204 187 135 188 175 162 166 166 152 152 153 153 151 147 143 140 139 142 166 148 123 108 116 119 100 75 58 65 59 58 64 65 57
55 33 47 157 172 224 223 207 186 307 312 224 252 254 191 243 195 212 179 161 157 163 168 169 155 155 157 157 156 149 144 141 145 147 126 135 133 141 139 134 118 93 76 67 77 65 59 55 54
50 41 67 216 232 228 221 271 292 342 347 48 350 270 271 296 141 184 141 152 149 160 164 157 153 159 159 157 158 155 154 151 146 149 154 144 159 173 165 152 133 111 96 84 80 68 52 23 5
52 81 197 227 243 242 243 257 273 311 310 302 344 266 243 254 309 161 157 156 153 163 164 167 156 163 161 159 162 162 162 163 162 159 159 179 198 190 192 175 159 137 127 100 35 23 4 339 336
125 116 193 233 240 236 253 254 267 259 290 291 255 271 238 243 173 157 152 155 161 162 166 173 171 165 163 163 166 167 168 168 170 170 177 200 202 224 276 203 168 162 151 184 333 337 346 337 326
163 150 211 234 249 260 246 230 253 271 265 284 201 252 265 208 179 149 147 146 160 168 169 177 178 175 169 167 167 169 172 170 172 180 189 208 211 358 315 173 163 167 173 289 319 333 331 333 334
134 160 187 225 241 253 239 194 203 204 279 308 197 235 285 24 154 143 135 139 156 172 181 184 180 180 179 179 173 172 171 170 170 177 189 182 128 39 40 131 149 171 206 295 329 335 341 346 356
127 189 217 227 202 234 266 212 246 312 263 329 276 286 326 5 142 143 146 160 168 187 195 192 188 184 181 179 183 178 177 174 173 176 177 166 165 95 66 70 173 232 339 347 335 345 5 8 30
182 209 223 195 199 232 261 264 327 303 284 283 314 325 2 134 192 183 184 192 197 197 199 197 196 191 182 182 182 185 180 181 177 172 172 174 171 202 231 64 28 13 8 11 356 6 37 42 51
182 233 209 211 167 301 274 290 245 251 268 248 264 284 344 339 233 228 225 210 210 199 201 202 198 194 190 188 182 187 184 176 175 172 169 163 148 137 124 167 208 216 74 324 33 47 61 56 50
215 251 250 256 287 278 266 280 266 249 250 281 214 301 304 302 282 237 239 231 216 207 211 202 200 196 199 196 191 189 188 182 178 177 173 163 158 144 129 115 107 119 85 75 78 71 64 54 37
227 258 270 281 302 277 265 252 252 253 252 266 279 282 282 279 273 265 248 244 230 234 225 210 201 199 196 194 197 192 193 189 184 176 177 169 166 154 131 97 83 84 90 81 72 64 59 48 29
192 259 276 284 271 261 258 260 235 246 243 247 250 256 262 255 262 277 261 256 231 235 231 213 208 204 197 196 195 195 193 186 182 182 177 174 169 147 125 108 93 81 76 74 71 59 56 48 26
243 289 294 260 252 246 265 267 246 250 239 245 241 241 250 252 263 263 261 257 251 245 244 218 211 200 199 198 193 192 191 182 181 178 180 176 157 143 133 116 100 84 77 76 75 67 55 38 14
250 248 273 275 275 245 202 259 247 264 238 244 244 245 247 252 257 255 255 253 250 262 260 249 216 200 197 195 187 186 185 179 165 163 162 154 147 140 131 119 110 97 88 92 74 49 55 22 2
221 252 223 290 185 297 205 272 282 268 321 287 271 260 254 256 259 261 261 249 253 259 262 254 210 200 192 188 180 177 171 164 146 137 131 131 129 121 124 121 117 106 96 78 79 56 48 17 355
208 233 240 243 310 313 293 278 279 288 295 290 284 276 273 264 259 261 261 254 255 262 254 241 209 189 179 163 147 129 131 116 118 123 121 123 119 121 118 117 111 106 91 77 76 74 59 28 348
259 268 271 281 294 308 275 279 276 277 274 272 268 270 267 265 261 261 257 254 257 248 225 212 187 174 161 156 149 146 143 136 117 108 114 112 115 119 124 112 104 96 85 76 67 85 53 29 3
254 265 267 277 268 270 284 280 278 267 260 255 256 252 250 251 255 253 256 250 238 233 209 193 183 175 171 163 150 139 133 118 117 107 101 112 120 122 115 111 104 99 98 79 63 59 84 46 21
242 249 262 261 288 273 284 284 272 255 254 252 252 252 250 246 243 244 240 230 223 216 207 188 177 174 160 138 118 111 104 108 107 115 110 106 108 111 107 106 105 102 97 89 78 66 69 66 53
255 224 244 258 274 273 164 290 272 266 265 266 253 244 240 241 237 240 235 226 218 217 199 178 172 165 155 150 146 153 154 152 150 135 121 113 109 108 108 107 105 102 100 99 91 78 76 89 49
236 195 227 241 248 280 248 266 281 331 278 272 263 255 242 238 234 233 230 220 216 196 191 173 164 166 161 157 155 151 141 126 123 123 119 114 107 109 110 108 107 106 105 103 103 93 83 76 91
201 272 273 243 241 252 252 209 279 264 262 269 259 271 266 254 243 241 232 221 208 175 172 168 165 164 160 155 153 150 141 137 134 140 131 130 121 116 109 108 108 110 110 107 103 101 91 92 93
187 193 250 242 218 247 199 202 243 259 290 277 269 268 269 264 253 242 223 208 192 180 172 164 163 163 159 153 147 143 143 145 145 148 141 140 132 127 123 119 117 112 112 109 108 91 83 74 53
190 201 210 246 234 266 229 236 252 236 247 257 272 286 287 276 262 248 221 203 189 178 169 163 161 155 154 148 137 132 134 137 138 139 143 136 133 128 129 121 116 118 114 102 92 74 59 51 352
182 218 237 261 266 268 247 260 285 265 256 265 282 303 289 275 247 238 218 201 184 176 172 165 153 148 146 142 131 129 130 135 141 136 131 129 126 127 127 124 122 116 104 91 70 49 22 348 335
217 149 194 199 253 253 250 252 239 242 292 287 279 324 326 312 267 233 206 192 179 169 158 148 146 143 138 135 133 132 133 132 131 130 131 129 125 126 125 122 115 108 98 76 52 18 0 341 327
196 224 216 235 237 257 270 261 208 248 249 243 265 308 324 318 288 228 190 166 153 141 140 137 135 133 131 129 128 128 129 129 127 127 128 126 124 125 123 120 113 105 91 66 26 5 339 321 309
212 229 218 232 234 221 247 266 204 220 239 225 316 317 313 311 284 175 154 144 140 137 135 135 131 126 128 128 127 126 125 126 126 126 126 126 122 120 121 118 111 104 87 41 12 343 312 301 310